Time,TemperatureF,DewpointF,PressureIn,WindDirection,WindDirectionDegrees,WindSpeedMPH,WindSpeedGustMPH,Humidity,HourlyPrecipIn,Conditions,Clouds,dailyrainin,SoftwareType,DateUTC
2013-04-28 00:01:00,49.1,47.7,30.21,NE,55,1.0,1.0,95,0.02,,---,0.00,VWS V14.01,2013-04-28 04:01:00,
2013-04-28 00:06:00,49.3,47.7,30.21,North,354,3.0,3.0,94,0.01,,---,0.00,VWS V14.01,2013-04-28 04:06:00,
2013-04-28 00:11:00,49.3,47.7,30.21,NE,46,0.0,1.0,94,0.01,,---,0.00,VWS V14.01,2013-04-28 04:11:00,
2013-04-28 00:16:00,49.3,47.7,30.21,NE,44,2.0,2.0,94,0.00,,---,0.00,VWS V14.01,2013-04-28 04:16:00,
2013-04-28 00:21:00,49.2,47.5,30.21,NE,46,1.0,1.0,94,0.00,,---,0.00,VWS V14.01,2013-04-28 04:21:00,
2013-04-28 00:26:00,49.2,47.0,30.21,ENE,67,2.0,2.0,92,0.00,,---,0.00,VWS V14.01,2013-04-28 04:26:00,
2013-04-28 00:31:00,49.5,47.8,30.20,NW,311,1.0,2.0,94,0.00,,---,0.00,VWS V14.01,2013-04-28 04:31:00,
2013-04-28 00:36:00,49.5,47.8,30.21,NW,318,1.0,2.0,94,0.00,,---,0.00,VWS V14.01,2013-04-28 04:36:00,
2013-04-28 00:41:00,49.6,47.7,30.20,NW,304,0.0,0.0,93,0.00,,---,0.00,VWS V14.01,2013-04-28 04:41:00,
2013-04-28 00:46:00,49.7,47.5,30.20,ENE,72,1.0,1.0,92,0.00,,---,0.00,VWS V14.01,2013-04-28 04:46:00,
2013-04-28 00:51:00,49.7,47.5,30.20,ESE,119,1.0,1.0,92,0.00,,---,0.00,VWS V14.01,2013-04-28 04:51:00,
2013-04-28 00:56:00,49.8,47.0,30.20,WNW,302,1.0,2.0,90,0.00,,---,0.00,VWS V14.01,2013-04-28 04:56:00,
2013-04-28 01:01:00,50.3,47.5,30.20,SE,143,0.0,0.0,90,0.00,,---,0.00,VWS V14.01,2013-04-28 05:01:00,
2013-04-28 01:06:00,50.3,47.5,30.20,NE,46,2.0,4.0,90,0.00,,---,0.00,VWS V14.01,2013-04-28 05:06:00,
2013-04-28 01:11:00,50.5,47.1,30.20,NNE,12,0.0,0.0,88,0.00,,---,0.00,VWS V14.01,2013-04-28 05:11:00,
2013-04-28 01:16:00,50.8,47.4,30.20,NNW,333,4.0,5.0,88,0.00,,---,0.00,VWS V14.01,2013-04-28 05:16:00,
2013-04-28 01:21:00,50.7,47.6,30.19,NW,309,2.0,2.0,89,0.00,,---,0.00,VWS V14.01,2013-04-28 05:21:00,
2013-04-28 01:26:00,50.7,47.0,30.18,WNW,297,3.0,3.0,87,0.00,,---,0.00,VWS V14.01,2013-04-28 05:26:00,
2013-04-28 01:31:00,51.0,47.6,30.19,South,170,0.0,0.0,88,0.00,,---,0.00,VWS V14.01,2013-04-28 05:31:00,
2013-04-28 01:36:00,51.0,47.6,30.19,NNE,15,2.0,2.0,88,0.00,,---,0.00,VWS V14.01,2013-04-28 05:36:00,
2013-04-28 01:41:00,51.1,47.1,30.19,South,169,0.0,0.0,86,0.00,,---,0.00,VWS V14.01,2013-04-28 05:41:00,
2013-04-28 01:46:00,51.2,47.2,30.19,NW,313,6.0,7.0,86,0.00,,---,0.00,VWS V14.01,2013-04-28 05:46:00,
2013-04-28 01:51:00,51.2,47.2,30.19,WNW,294,3.0,6.0,86,0.00,,---,0.00,VWS V14.01,2013-04-28 05:51:00,
2013-04-28 01:56:00,50.8,47.7,30.19,ENE,64,1.0,2.0,89,0.01,,---,0.01,VWS V14.01,2013-04-28 05:56:00,
2013-04-28 02:01:00,50.3,47.2,30.19,WNW,295,1.0,1.0,89,0.01,,---,0.01,VWS V14.01,2013-04-28 06:01:00,
2013-04-28 02:06:00,50.1,47.0,30.19,NW,314,3.0,3.0,89,0.01,,---,0.01,VWS V14.01,2013-04-28 06:06:00,
2013-04-28 02:11:00,50.1,47.6,30.19,NE,34,0.0,0.0,91,0.01,,---,0.01,VWS V14.01,2013-04-28 06:11:00,
2013-04-28 02:16:00,50.0,47.2,30.18,WNW,287,1.0,1.0,90,0.01,,---,0.01,VWS V14.01,2013-04-28 06:16:00,
2013-04-28 02:21:00,50.1,47.3,30.19,ENE,65,2.0,2.0,90,0.01,,---,0.01,VWS V14.01,2013-04-28 06:21:00,
2013-04-28 02:26:00,50.2,47.1,30.18,WNW,295,2.0,4.0,89,0.01,,---,0.01,VWS V14.01,2013-04-28 06:26:00,
2013-04-28 02:31:00,50.3,46.9,30.17,SW,221,0.0,2.0,88,0.01,,---,0.01,VWS V14.01,2013-04-28 06:31:00,
2013-04-28 02:36:00,50.4,46.7,30.17,East,89,1.0,1.0,87,0.01,,---,0.01,VWS V14.01,2013-04-28 06:36:00,
2013-04-28 02:41:00,50.5,47.1,30.17,WNW,302,4.0,6.0,88,0.01,,---,0.01,VWS V14.01,2013-04-28 06:41:00,
2013-04-28 02:46:00,50.5,46.8,30.17,WNW,290,1.0,1.0,87,0.01,,---,0.01,VWS V14.01,2013-04-28 06:46:00,
2013-04-28 02:51:00,50.7,46.7,30.16,NW,322,3.0,6.0,86,0.01,,---,0.01,VWS V14.01,2013-04-28 06:51:00,
2013-04-28 02:56:00,50.7,46.4,30.16,WNW,302,0.0,0.0,85,0.00,,---,0.01,VWS V14.01,2013-04-28 06:56:00,
2013-04-28 03:01:00,50.7,45.7,30.17,West,274,2.0,5.0,83,0.00,,---,0.01,VWS V14.01,2013-04-28 07:01:00,
2013-04-28 03:06:00,51.0,45.4,30.17,ENE,73,0.0,2.0,81,0.00,,---,0.01,VWS V14.01,2013-04-28 07:06:00,
2013-04-28 03:11:00,51.2,45.2,30.16,NW,314,3.0,4.0,80,0.00,,---,0.01,VWS V14.01,2013-04-28 07:11:00,
2013-04-28 03:16:00,51.2,45.6,30.16,South,185,1.0,2.0,81,0.00,,---,0.01,VWS V14.01,2013-04-28 07:16:00,
2013-04-28 03:21:00,51.1,45.5,30.16,NNW,339,3.0,3.0,81,0.00,,---,0.01,VWS V14.01,2013-04-28 07:21:00,
2013-04-28 03:26:00,51.0,45.1,30.16,West,269,0.0,0.0,80,0.00,,---,0.01,VWS V14.01,2013-04-28 07:26:00,
2013-04-28 03:31:00,51.1,45.8,30.16,SSE,149,0.0,0.0,82,0.00,,---,0.01,VWS V14.01,2013-04-28 07:31:00,
2013-04-28 03:36:00,50.8,45.2,30.15,East,85,0.0,0.0,81,0.00,,---,0.01,VWS V14.01,2013-04-28 07:36:00,
2013-04-28 03:41:00,50.8,45.2,30.15,WNW,294,8.0,8.0,81,0.00,,---,0.01,VWS V14.01,2013-04-28 07:41:00,
2013-04-28 03:46:00,50.8,45.2,30.15,WNW,301,5.0,5.0,81,0.00,,---,0.01,VWS V14.01,2013-04-28 07:46:00,
2013-04-28 03:51:00,50.9,44.6,30.15,NE,51,0.0,1.0,79,0.00,,---,0.01,VWS V14.01,2013-04-28 07:51:00,
2013-04-28 03:56:00,50.7,44.8,30.14,ESE,119,0.0,1.0,80,0.00,,---,0.01,VWS V14.01,2013-04-28 07:56:00,
2013-04-28 04:01:00,50.8,44.2,30.15,SW,226,2.0,4.0,78,0.00,,---,0.01,VWS V14.01,2013-04-28 08:01:00,
2013-04-28 04:05:00,51.0,44.4,30.16,WSW,242,2.0,2.0,78,0.00,,---,0.01,VWS V14.01,2013-04-28 08:05:00,
2013-04-28 04:10:00,50.7,45.7,30.16,NNW,348,1.0,2.0,83,0.00,,---,0.01,VWS V14.01,2013-04-28 08:10:00,
2013-04-28 04:15:00,50.3,44.4,30.16,WSW,241,4.0,5.0,80,0.00,,---,0.01,VWS V14.01,2013-04-28 08:15:00,
2013-04-28 04:20:00,50.4,44.8,30.15,WNW,290,0.0,0.0,81,0.00,,---,0.01,VWS V14.01,2013-04-28 08:20:00,
2013-04-28 04:25:00,50.1,44.5,30.15,WNW,283,1.0,2.0,81,0.00,,---,0.01,VWS V14.01,2013-04-28 08:25:00,
2013-04-28 04:30:00,50.3,44.4,30.14,NNE,16,1.0,1.0,80,0.00,,---,0.01,VWS V14.01,2013-04-28 08:30:00,
2013-04-28 04:35:00,49.8,43.6,30.14,WNW,283,1.0,1.0,79,0.00,,---,0.01,VWS V14.01,2013-04-28 08:35:00,
2013-04-28 04:40:00,50.0,43.4,30.14,West,278,5.0,8.0,78,0.00,,---,0.01,VWS V14.01,2013-04-28 08:40:00,
2013-04-28 04:45:00,50.3,43.7,30.15,SE,134,0.0,0.0,78,0.00,,---,0.01,VWS V14.01,2013-04-28 08:45:00,
2013-04-28 04:50:00,50.3,44.0,30.15,SE,134,0.0,1.0,79,0.00,,---,0.01,VWS V14.01,2013-04-28 08:50:00,
2013-04-28 04:55:00,50.1,42.8,30.15,South,176,3.0,3.0,76,0.00,,---,0.01,VWS V14.01,2013-04-28 08:55:00,
2013-04-28 05:00:00,50.1,43.8,30.15,East,84,0.0,0.0,79,0.00,,---,0.01,VWS V14.01,2013-04-28 09:00:00,
2013-04-28 05:05:00,50.1,43.2,30.16,West,266,5.0,6.0,77,0.00,,---,0.01,VWS V14.01,2013-04-28 09:05:00,
2013-04-28 05:10:00,50.1,43.2,30.15,NNE,23,3.0,3.0,77,0.00,,---,0.01,VWS V14.01,2013-04-28 09:10:00,
2013-04-28 05:15:00,50.0,43.4,30.15,NNW,340,2.0,2.0,78,0.00,,---,0.01,VWS V14.01,2013-04-28 09:15:00,
2013-04-28 05:20:00,50.0,43.4,30.14,SW,232,0.0,0.0,78,0.00,,---,0.01,VWS V14.01,2013-04-28 09:20:00,
2013-04-28 05:25:00,49.7,43.8,30.13,ENE,67,2.0,2.0,80,0.00,,---,0.01,VWS V14.01,2013-04-28 09:25:00,
2013-04-28 05:30:00,49.4,44.1,30.14,West,264,2.0,2.0,82,0.00,,---,0.01,VWS V14.01,2013-04-28 09:30:00,
2013-04-28 05:35:00,49.4,43.2,30.14,NW,322,1.0,2.0,79,0.00,,---,0.01,VWS V14.01,2013-04-28 09:35:00,
2013-04-28 05:40:00,49.5,43.6,30.13,South,177,0.0,0.0,80,0.00,,---,0.01,VWS V14.01,2013-04-28 09:40:00,
2013-04-28 05:45:00,49.5,44.6,30.12,NE,39,1.0,1.0,83,0.00,,---,0.01,VWS V14.01,2013-04-28 09:45:00,
2013-04-28 05:50:00,49.6,43.7,30.13,WNW,301,0.0,0.0,80,0.00,,---,0.01,VWS V14.01,2013-04-28 09:50:00,
2013-04-28 05:55:00,49.5,43.9,30.13,ESE,119,4.0,5.0,81,0.00,,---,0.01,VWS V14.01,2013-04-28 09:55:00,
2013-04-28 06:00:00,49.5,43.6,30.13,NW,322,1.0,1.0,80,0.00,,---,0.01,VWS V14.01,2013-04-28 10:00:00,
2013-04-28 06:05:00,49.5,43.6,30.13,NW,312,5.0,5.0,80,0.00,,---,0.01,VWS V14.01,2013-04-28 10:05:00,
2013-04-28 06:10:00,49.5,43.6,30.13,WNW,283,2.0,2.0,80,0.00,,---,0.01,VWS V14.01,2013-04-28 10:10:00,
2013-04-28 06:15:00,49.4,43.8,30.12,West,278,3.0,3.0,81,0.00,,---,0.01,VWS V14.01,2013-04-28 10:15:00,
2013-04-28 06:20:00,49.3,44.0,30.12,ENE,65,4.0,4.0,82,0.00,,---,0.01,VWS V14.01,2013-04-28 10:20:00,
2013-04-28 06:25:00,49.2,44.6,30.12,WNW,302,2.0,4.0,84,0.00,,---,0.01,VWS V14.01,2013-04-28 10:25:00,
2013-04-28 06:30:00,49.1,44.5,30.12,WNW,291,3.0,3.0,84,0.00,,---,0.01,VWS V14.01,2013-04-28 10:30:00,
2013-04-28 06:35:00,49.2,44.0,30.11,WNW,295,1.0,1.0,82,0.00,,---,0.01,VWS V14.01,2013-04-28 10:35:00,
2013-04-28 06:40:00,49.3,44.4,30.11,SW,228,1.0,3.0,83,0.00,,---,0.01,VWS V14.01,2013-04-28 10:40:00,
2013-04-28 06:45:00,49.1,44.2,30.12,East,82,1.0,4.0,83,0.00,,---,0.01,VWS V14.01,2013-04-28 10:45:00,
2013-04-28 06:50:00,49.1,43.5,30.13,South,180,3.0,3.0,81,0.00,,---,0.01,VWS V14.01,2013-04-28 10:50:00,
2013-04-28 06:55:00,49.1,43.5,30.13,NNW,333,2.0,5.0,81,0.00,,---,0.01,VWS V14.01,2013-04-28 10:55:00,
2013-04-28 07:00:00,49.1,43.2,30.13,South,190,0.0,2.0,80,0.00,,---,0.01,VWS V14.01,2013-04-28 11:00:00,
2013-04-28 07:05:00,48.9,43.7,30.14,WNW,301,0.0,0.0,82,0.00,,---,0.01,VWS V14.01,2013-04-28 11:05:00,
2013-04-28 07:10:00,48.8,43.6,30.14,WNW,283,1.0,2.0,82,0.00,,---,0.01,VWS V14.01,2013-04-28 11:10:00,
2013-04-28 07:15:00,48.6,44.6,30.13,NNE,23,0.0,1.0,86,0.00,,---,0.01,VWS V14.01,2013-04-28 11:15:00,
2013-04-28 07:20:00,48.2,44.2,30.14,WNW,295,0.0,1.0,86,0.00,,---,0.01,VWS V14.01,2013-04-28 11:20:00,
2013-04-28 07:25:00,48.1,44.1,30.14,NW,316,0.0,0.0,86,0.00,,---,0.01,VWS V14.01,2013-04-28 11:25:00,
2013-04-28 07:30:00,48.1,43.8,30.14,NW,325,0.0,0.0,85,0.00,,---,0.01,VWS V14.01,2013-04-28 11:30:00,
2013-04-28 07:35:00,48.1,43.8,30.14,WNW,294,0.0,1.0,85,0.00,,---,0.01,VWS V14.01,2013-04-28 11:35:00,
2013-04-28 07:40:00,48.1,43.5,30.14,West,262,1.0,3.0,84,0.00,,---,0.01,VWS V14.01,2013-04-28 11:40:00,
2013-04-28 07:45:00,48.1,43.8,30.14,WNW,300,1.0,2.0,85,0.00,,---,0.01,VWS V14.01,2013-04-28 11:45:00,
2013-04-28 07:50:00,47.8,43.5,30.14,NNE,32,1.0,1.0,85,0.00,,---,0.01,VWS V14.01,2013-04-28 11:50:00,
2013-04-28 07:55:00,47.9,43.9,30.14,West,273,0.0,0.0,86,0.00,,---,0.01,VWS V14.01,2013-04-28 11:55:00,
2013-04-28 08:00:00,47.9,44.5,30.15,West,274,0.0,0.0,88,0.00,,---,0.01,VWS V14.01,2013-04-28 12:00:00,
2013-04-28 08:05:00,47.9,43.9,30.15,SSW,197,1.0,3.0,86,0.00,,---,0.01,VWS V14.01,2013-04-28 12:05:00,
2013-04-28 08:10:00,48.0,44.3,30.16,SE,142,2.0,3.0,87,0.00,,---,0.01,VWS V14.01,2013-04-28 12:10:00,
2013-04-28 08:15:00,48.1,44.1,30.16,SE,135,1.0,2.0,86,0.00,,---,0.01,VWS V14.01,2013-04-28 12:15:00,
2013-04-28 08:20:00,48.0,44.0,30.16,WSW,240,4.0,4.0,86,0.00,,---,0.01,VWS V14.01,2013-04-28 12:20:00,
2013-04-28 08:25:00,48.0,43.7,30.16,SW,219,7.0,7.0,85,0.00,,---,0.01,VWS V14.01,2013-04-28 12:25:00,
2013-04-28 08:30:00,48.1,43.8,30.17,West,280,3.0,4.0,85,0.00,,---,0.01,VWS V14.01,2013-04-28 12:30:00,
2013-04-28 08:35:00,48.2,43.9,30.17,NNW,328,1.0,4.0,85,0.00,,---,0.01,VWS V14.01,2013-04-28 12:35:00,
2013-04-28 08:40:00,48.2,44.2,30.17,NW,304,0.0,1.0,86,0.00,,---,0.01,VWS V14.01,2013-04-28 12:40:00,
2013-04-28 08:45:00,48.1,43.8,30.17,ENE,78,3.0,3.0,85,0.00,,---,0.01,VWS V14.01,2013-04-28 12:45:00,
2013-04-28 08:50:00,48.1,44.4,30.17,NNW,336,2.0,2.0,87,0.00,,---,0.01,VWS V14.01,2013-04-28 12:50:00,
2013-04-28 08:55:00,48.0,44.3,30.16,NE,39,0.0,1.0,87,0.00,,---,0.01,VWS V14.01,2013-04-28 12:55:00,
2013-04-28 09:00:00,48.0,44.3,30.16,NE,39,0.0,1.0,87,0.00,,---,0.01,VWS V14.01,2013-04-28 13:00:00,
2013-04-28 09:05:00,47.9,44.8,30.16,NE,39,0.0,0.0,89,0.00,,---,0.01,VWS V14.01,2013-04-28 13:05:00,
2013-04-28 09:10:00,47.9,44.8,30.18,WNW,293,0.0,0.0,89,0.00,,---,0.01,VWS V14.01,2013-04-28 13:10:00,
2013-04-28 09:15:00,47.7,44.6,30.21,ESE,113,4.0,4.0,89,0.01,,---,0.02,VWS V14.01,2013-04-28 13:15:00,
2013-04-28 09:20:00,47.1,44.0,30.22,ESE,104,2.0,2.0,89,0.06,,---,0.07,VWS V14.01,2013-04-28 13:20:00,
2013-04-28 09:25:00,46.4,43.9,30.21,SE,139,1.0,1.0,91,0.10,,---,0.11,VWS V14.01,2013-04-28 13:25:00,
2013-04-28 09:30:00,46.2,44.3,30.20,SSE,149,0.0,0.0,93,0.13,,---,0.14,VWS V14.01,2013-04-28 13:30:00,
2013-04-28 09:35:00,46.1,44.5,30.19,SSE,149,0.0,0.0,94,0.14,,---,0.15,VWS V14.01,2013-04-28 13:35:00,
2013-04-28 09:40:00,46.0,44.4,30.18,WSW,245,0.0,0.0,94,0.15,,---,0.16,VWS V14.01,2013-04-28 13:40:00,
2013-04-28 09:45:00,46.0,44.7,30.17,WNW,285,1.0,1.0,95,0.17,,---,0.18,VWS V14.01,2013-04-28 13:45:00,
2013-04-28 09:50:00,45.9,44.5,30.16,WNW,295,1.0,1.0,95,0.18,,---,0.19,VWS V14.01,2013-04-28 13:50:00,
2013-04-28 09:55:00,46.0,44.9,30.16,WNW,295,0.0,1.0,96,0.18,,---,0.19,VWS V14.01,2013-04-28 13:55:00,
2013-04-28 10:00:00,46.2,45.1,30.16,NNW,328,0.0,1.0,96,0.19,,---,0.20,VWS V14.01,2013-04-28 14:00:00,
2013-04-28 10:05:00,46.4,45.3,30.16,NNW,328,0.0,0.0,96,0.20,,---,0.21,VWS V14.01,2013-04-28 14:05:00,
2013-04-28 10:10:00,46.7,45.6,30.16,NW,315,0.0,1.0,96,0.20,,---,0.21,VWS V14.01,2013-04-28 14:10:00,
2013-04-28 10:15:00,46.9,46.1,30.16,NW,316,0.0,0.0,97,0.20,,---,0.22,VWS V14.01,2013-04-28 14:15:00,
2013-04-28 10:20:00,47.1,46.3,30.15,North,8,1.0,1.0,97,0.17,,---,0.23,VWS V14.01,2013-04-28 14:20:00,
2013-04-28 10:25:00,47.3,46.5,30.15,North,11,0.0,0.0,97,0.13,,---,0.24,VWS V14.01,2013-04-28 14:25:00,
2013-04-28 10:30:00,47.5,46.7,30.15,NNE,12,2.0,2.0,97,0.12,,---,0.25,VWS V14.01,2013-04-28 14:30:00,
2013-04-28 10:35:00,47.8,47.0,30.15,WNW,295,0.0,0.0,97,0.11,,---,0.26,VWS V14.01,2013-04-28 14:35:00,
2013-04-28 10:40:00,48.1,47.3,30.15,WNW,295,1.0,1.0,97,0.10,,---,0.26,VWS V14.01,2013-04-28 14:40:00,
2013-04-28 10:45:00,48.2,47.4,30.15,NNE,19,1.0,2.0,97,0.09,,---,0.27,VWS V14.01,2013-04-28 14:45:00,
2013-04-28 10:50:00,48.4,47.6,30.15,NNE,19,0.0,1.0,97,0.09,,---,0.28,VWS V14.01,2013-04-28 14:50:00,
2013-04-28 10:55:00,48.5,47.7,30.15,NNE,20,1.0,1.0,97,0.11,,---,0.30,VWS V14.01,2013-04-28 14:55:00,
2013-04-28 11:00:00,48.7,47.9,30.15,NNE,20,0.0,0.0,97,0.11,,---,0.31,VWS V14.01,2013-04-28 15:00:00,
2013-04-28 11:05:00,48.9,48.1,30.16,West,259,0.0,1.0,97,0.11,,---,0.32,VWS V14.01,2013-04-28 15:05:00,
2013-04-28 11:10:00,48.9,48.1,30.17,WSW,250,1.0,1.0,97,0.11,,---,0.32,VWS V14.01,2013-04-28 15:10:00,
2013-04-28 11:15:00,48.6,47.8,30.17,West,267,1.0,1.0,97,0.11,,---,0.33,VWS V14.01,2013-04-28 15:15:00,
2013-04-28 11:20:00,48.3,47.2,30.18,WNW,283,0.0,0.0,96,0.12,,---,0.34,VWS V14.01,2013-04-28 15:20:00,
2013-04-28 11:25:00,48.3,47.5,30.18,WNW,283,0.0,0.0,97,0.12,,---,0.35,VWS V14.01,2013-04-28 15:25:00,
2013-04-28 11:30:00,48.3,47.5,30.17,WNW,283,0.0,0.0,97,0.11,,---,0.36,VWS V14.01,2013-04-28 15:30:00,
2013-04-28 11:35:00,48.3,47.5,30.17,WSW,241,0.0,1.0,97,0.13,,---,0.39,VWS V14.01,2013-04-28 15:35:00,
2013-04-28 11:40:00,48.1,47.3,30.17,WSW,242,0.0,0.0,97,0.16,,---,0.42,VWS V14.01,2013-04-28 15:40:00,
2013-04-28 11:45:00,47.9,47.1,30.18,WSW,239,1.0,1.0,97,0.17,,---,0.44,VWS V14.01,2013-04-28 15:45:00,
2013-04-28 11:50:00,47.7,46.6,30.18,WNW,283,0.0,0.0,96,0.18,,---,0.46,VWS V14.01,2013-04-28 15:50:00,
2013-04-28 11:55:00,47.4,46.6,30.18,WNW,284,0.0,0.0,97,0.19,,---,0.48,VWS V14.01,2013-04-28 15:55:00,
2013-04-28 12:00:00,47.3,46.5,30.18,WNW,283,0.0,1.0,97,0.19,,---,0.50,VWS V14.01,2013-04-28 16:00:00,
2013-04-28 12:05:00,47.3,46.5,30.18,WNW,283,0.0,0.0,97,0.21,,---,0.53,VWS V14.01,2013-04-28 16:05:00,
2013-04-28 12:10:00,47.3,46.5,30.17,WNW,284,0.0,0.0,97,0.24,,---,0.56,VWS V14.01,2013-04-28 16:10:00,
2013-04-28 12:15:00,47.3,46.5,30.17,WNW,283,0.0,0.0,97,0.25,,---,0.58,VWS V14.01,2013-04-28 16:15:00,
2013-04-28 12:20:00,47.4,46.6,30.16,WNW,283,0.0,0.0,97,0.25,,---,0.59,VWS V14.01,2013-04-28 16:20:00,
2013-04-28 12:25:00,47.6,46.8,30.16,WNW,283,0.0,0.0,97,0.27,,---,0.61,VWS V14.01,2013-04-28 16:25:00,
2013-04-28 12:30:00,47.8,47.3,30.15,WNW,283,0.0,0.0,98,0.26,,---,0.62,VWS V14.01,2013-04-28 16:30:00,
2013-04-28 12:35:00,48.2,47.7,30.15,WNW,283,1.0,1.0,98,0.26,,---,0.64,VWS V14.01,2013-04-28 16:35:00,
2013-04-28 12:40:00,48.4,47.9,30.14,WNW,284,0.0,0.0,98,0.24,,---,0.65,VWS V14.01,2013-04-28 16:40:00,
2013-04-28 12:45:00,48.5,48.0,30.15,WNW,283,0.0,0.0,98,0.24,,---,0.67,VWS V14.01,2013-04-28 16:45:00,
2013-04-28 12:50:00,48.6,48.1,30.15,WNW,284,0.0,0.0,98,0.22,,---,0.68,VWS V14.01,2013-04-28 16:50:00,
2013-04-28 12:55:00,48.7,48.2,30.15,WNW,284,0.0,0.0,98,0.21,,---,0.69,VWS V14.01,2013-04-28 16:55:00,
2013-04-28 13:00:00,48.9,48.4,30.14,WNW,284,0.0,0.0,98,0.20,,---,0.70,VWS V14.01,2013-04-28 17:00:00,
2013-04-28 13:05:00,49.1,48.6,30.14,WNW,283,0.0,1.0,98,0.20,,---,0.72,VWS V14.01,2013-04-28 17:05:00,
2013-04-28 13:10:00,49.2,48.7,30.14,WNW,283,0.0,1.0,98,0.18,,---,0.73,VWS V14.01,2013-04-28 17:10:00,
2013-04-28 13:15:00,49.3,48.8,30.14,WNW,283,0.0,0.0,98,0.16,,---,0.73,VWS V14.01,2013-04-28 17:15:00,
2013-04-28 13:20:00,49.6,49.1,30.13,WNW,283,0.0,0.0,98,0.15,,---,0.74,VWS V14.01,2013-04-28 17:20:00,
2013-04-28 13:25:00,49.8,49.3,30.13,WNW,283,0.0,0.0,98,0.14,,---,0.75,VWS V14.01,2013-04-28 17:25:00,
2013-04-28 13:30:00,50.1,49.6,30.13,WNW,283,0.0,0.0,98,0.13,,---,0.75,VWS V14.01,2013-04-28 17:30:00,
2013-04-28 13:35:00,50.4,49.9,30.12,WNW,283,0.0,0.0,98,0.12,,---,0.76,VWS V14.01,2013-04-28 17:35:00,
2013-04-28 13:40:00,50.7,50.2,30.12,WNW,283,0.0,0.0,98,0.12,,---,0.77,VWS V14.01,2013-04-28 17:40:00,
2013-04-28 13:45:00,50.9,50.4,30.12,WNW,283,0.0,0.0,98,0.11,,---,0.77,VWS V14.01,2013-04-28 17:45:00,
2013-04-28 13:50:00,51.1,50.6,30.11,WNW,283,1.0,1.0,98,0.10,,---,0.78,VWS V14.01,2013-04-28 17:50:00,
2013-04-28 13:55:00,51.0,50.5,30.11,WNW,283,0.0,1.0,98,0.09,,---,0.78,VWS V14.01,2013-04-28 17:55:00,
2013-04-28 14:00:00,51.0,50.5,30.11,SW,234,1.0,1.0,98,0.09,,---,0.79,VWS V14.01,2013-04-28 18:00:00,
2013-04-28 14:05:00,50.8,50.0,30.11,SW,222,0.0,0.0,97,0.07,,---,0.79,VWS V14.01,2013-04-28 18:05:00,
2013-04-28 14:10:00,50.8,50.3,30.11,SW,220,0.0,0.0,98,0.08,,---,0.80,VWS V14.01,2013-04-28 18:10:00,
2013-04-28 14:15:00,50.9,50.4,30.10,SW,221,0.0,0.0,98,0.07,,---,0.80,VWS V14.01,2013-04-28 18:15:00,
2013-04-28 14:20:00,50.8,50.0,30.10,WSW,242,0.0,1.0,97,0.06,,---,0.80,VWS V14.01,2013-04-28 18:20:00,
2013-04-28 14:25:00,50.9,50.4,30.10,WSW,242,0.0,0.0,98,0.05,,---,0.80,VWS V14.01,2013-04-28 18:25:00,
2013-04-28 14:30:00,51.0,50.5,30.08,WSW,242,0.0,1.0,98,0.05,,---,0.80,VWS V14.01,2013-04-28 18:30:00,
2013-04-28 14:35:00,51.1,50.6,30.09,West,280,1.0,1.0,98,0.04,,---,0.80,VWS V14.01,2013-04-28 18:35:00,
2013-04-28 14:40:00,51.0,50.5,30.09,West,277,0.0,0.0,98,0.03,,---,0.80,VWS V14.01,2013-04-28 18:40:00,
2013-04-28 14:45:00,51.0,50.5,30.08,West,277,0.0,0.0,98,0.04,,---,0.81,VWS V14.01,2013-04-28 18:45:00,
2013-04-28 14:50:00,51.2,50.7,30.08,West,276,1.0,1.0,98,0.03,,---,0.81,VWS V14.01,2013-04-28 18:50:00,
2013-04-28 14:55:00,51.3,50.8,30.08,West,274,0.0,0.0,98,0.03,,---,0.81,VWS V14.01,2013-04-28 18:55:00,
2013-04-28 15:00:00,51.3,50.8,30.09,WSW,249,1.0,1.0,98,0.02,,---,0.81,VWS V14.01,2013-04-28 19:00:00,
2013-04-28 15:05:00,51.1,50.3,30.10,SE,134,1.0,1.0,97,0.02,,---,0.81,VWS V14.01,2013-04-28 19:05:00,
2013-04-28 15:10:00,50.9,50.1,30.09,SSW,201,0.0,0.0,97,0.02,,---,0.81,VWS V14.01,2013-04-28 19:10:00,
2013-04-28 15:15:00,50.9,50.1,30.10,SE,135,0.0,1.0,97,0.02,,---,0.82,VWS V14.01,2013-04-28 19:15:00,
2013-04-28 15:20:00,50.9,50.4,30.10,South,185,0.0,1.0,98,0.02,,---,0.82,VWS V14.01,2013-04-28 19:20:00,
2013-04-28 15:25:00,51.0,50.5,30.10,South,184,0.0,0.0,98,0.03,,---,0.83,VWS V14.01,2013-04-28 19:25:00,
2013-04-28 15:30:00,50.9,50.1,30.09,SSE,149,0.0,0.0,97,0.04,,---,0.84,VWS V14.01,2013-04-28 19:30:00,
2013-04-28 15:35:00,50.9,50.4,30.09,SW,231,2.0,2.0,98,0.05,,---,0.85,VWS V14.01,2013-04-28 19:35:00,
2013-04-28 15:40:00,50.6,49.8,30.10,WSW,256,0.0,0.0,97,0.06,,---,0.86,VWS V14.01,2013-04-28 19:40:00,
2013-04-28 15:45:00,50.3,49.5,30.09,SW,235,0.0,0.0,97,0.06,,---,0.87,VWS V14.01,2013-04-28 19:45:00,
2013-04-28 15:50:00,50.1,49.3,30.09,SW,235,0.0,1.0,97,0.07,,---,0.88,VWS V14.01,2013-04-28 19:50:00,
2013-04-28 15:55:00,50.1,49.3,30.09,SW,231,0.0,1.0,97,0.09,,---,0.90,VWS V14.01,2013-04-28 19:55:00,
2013-04-28 16:00:00,50.0,49.2,30.08,SW,214,1.0,2.0,97,0.09,,---,0.90,VWS V14.01,2013-04-28 20:00:00,
2013-04-28 16:05:00,49.9,49.1,30.08,West,273,0.0,1.0,97,0.10,,---,0.91,VWS V14.01,2013-04-28 20:05:00,
2013-04-28 16:10:00,49.8,49.0,30.08,West,273,0.0,0.0,97,0.11,,---,0.92,VWS V14.01,2013-04-28 20:10:00,
2013-04-28 16:15:00,49.9,49.4,30.08,West,281,0.0,0.0,98,0.10,,---,0.92,VWS V14.01,2013-04-28 20:15:00,
2013-04-28 16:20:00,50.0,49.5,30.08,West,281,0.0,1.0,98,0.11,,---,0.93,VWS V14.01,2013-04-28 20:20:00,
2013-04-28 16:25:00,50.1,49.6,30.07,West,281,0.0,0.0,98,0.10,,---,0.93,VWS V14.01,2013-04-28 20:25:00,
2013-04-28 16:30:00,50.1,49.6,30.08,West,280,0.0,0.0,98,0.10,,---,0.94,VWS V14.01,2013-04-28 20:30:00,
2013-04-28 16:35:00,50.1,49.6,30.08,West,280,0.0,1.0,98,0.09,,---,0.94,VWS V14.01,2013-04-28 20:35:00,
2013-04-28 16:40:00,50.3,49.8,30.07,SSW,211,0.0,2.0,98,0.09,,---,0.95,VWS V14.01,2013-04-28 20:40:00,
2013-04-28 16:45:00,50.2,49.7,30.07,SSW,204,0.0,0.0,98,0.08,,---,0.95,VWS V14.01,2013-04-28 20:45:00,
2013-04-28 16:50:00,50.3,49.8,30.07,West,269,1.0,1.0,98,0.07,,---,0.95,VWS V14.01,2013-04-28 20:50:00,
2013-04-28 16:55:00,50.2,49.7,30.06,West,276,1.0,2.0,98,0.06,,---,0.95,VWS V14.01,2013-04-28 20:55:00,
2013-04-28 17:00:00,50.1,49.6,30.06,WSW,257,0.0,3.0,98,0.06,,---,0.96,VWS V14.01,2013-04-28 21:00:00,
2013-04-28 17:05:00,49.9,49.4,30.06,West,277,0.0,1.0,98,0.05,,---,0.96,VWS V14.01,2013-04-28 21:05:00,
2013-04-28 17:10:00,49.8,49.3,30.06,West,280,1.0,1.0,98,0.05,,---,0.96,VWS V14.01,2013-04-28 21:10:00,
2013-04-28 17:15:00,49.8,49.3,30.05,West,280,0.0,0.0,98,0.04,,---,0.96,VWS V14.01,2013-04-28 21:15:00,
2013-04-28 17:20:00,50.1,49.6,30.05,West,280,0.0,1.0,98,0.04,,---,0.96,VWS V14.01,2013-04-28 21:20:00,
2013-04-28 17:25:00,50.2,49.7,30.06,SSE,162,1.0,1.0,98,0.03,,---,0.96,VWS V14.01,2013-04-28 21:25:00,
2013-04-28 17:30:00,50.3,49.8,30.06,SSW,204,0.0,0.0,98,0.02,,---,0.96,VWS V14.01,2013-04-28 21:30:00,
2013-04-28 17:35:00,50.4,49.9,30.06,SSW,204,0.0,0.0,98,0.03,,---,0.97,VWS V14.01,2013-04-28 21:35:00,
2013-04-28 17:40:00,50.7,50.2,30.06,SSW,204,0.0,0.0,98,0.03,,---,0.97,VWS V14.01,2013-04-28 21:40:00,
2013-04-28 17:45:00,51.0,50.5,30.06,SSW,206,0.0,0.0,98,0.02,,---,0.97,VWS V14.01,2013-04-28 21:45:00,
2013-04-28 17:50:00,51.0,50.5,30.07,SSW,205,0.0,0.0,98,0.02,,---,0.97,VWS V14.01,2013-04-28 21:50:00,
2013-04-28 17:55:00,51.0,50.5,30.07,SSW,205,0.0,0.0,98,0.03,,---,0.98,VWS V14.01,2013-04-28 21:55:00,
2013-04-28 18:00:00,51.0,50.5,30.08,SSW,206,0.0,0.0,98,0.02,,---,0.98,VWS V14.01,2013-04-28 22:00:00,
2013-04-28 18:05:00,50.9,50.4,30.08,SE,126,1.0,1.0,98,0.03,,---,0.99,VWS V14.01,2013-04-28 22:05:00,
2013-04-28 18:10:00,50.9,50.4,30.08,SW,221,0.0,3.0,98,0.04,,---,1.00,VWS V14.01,2013-04-28 22:10:00,
2013-04-28 18:15:00,50.8,50.3,30.08,SE,144,2.0,3.0,98,0.05,,---,1.01,VWS V14.01,2013-04-28 22:15:00,
2013-04-28 18:20:00,50.6,50.1,30.09,ESE,102,0.0,1.0,98,0.05,,---,1.01,VWS V14.01,2013-04-28 22:20:00,
2013-04-28 18:25:00,50.6,50.1,30.09,East,101,0.0,0.0,98,0.07,,---,1.03,VWS V14.01,2013-04-28 22:25:00,
2013-04-28 18:30:00,50.6,50.1,30.08,ESE,102,0.0,0.0,98,0.08,,---,1.04,VWS V14.01,2013-04-28 22:30:00,
2013-04-28 18:35:00,50.6,50.1,30.08,West,274,1.0,1.0,98,0.07,,---,1.04,VWS V14.01,2013-04-28 22:35:00,
2013-04-28 18:40:00,50.4,49.9,30.07,WSW,250,0.0,2.0,98,0.08,,---,1.05,VWS V14.01,2013-04-28 22:40:00,
2013-04-28 18:45:00,50.4,49.9,30.07,West,271,1.0,1.0,98,0.08,,---,1.05,VWS V14.01,2013-04-28 22:45:00,
2013-04-28 18:50:00,50.3,49.8,30.08,West,271,0.0,0.0,98,0.09,,---,1.06,VWS V14.01,2013-04-28 22:50:00,
2013-04-28 18:55:00,50.4,49.9,30.08,West,271,0.0,0.0,98,0.09,,---,1.07,VWS V14.01,2013-04-28 22:55:00,
2013-04-28 19:00:00,50.4,49.9,30.08,West,271,0.0,0.0,98,0.09,,---,1.07,VWS V14.01,2013-04-28 23:00:00,
2013-04-28 19:05:00,50.4,49.9,30.08,West,271,0.0,0.0,98,0.09,,---,1.08,VWS V14.01,2013-04-28 23:05:00,
2013-04-28 19:10:00,50.4,49.9,30.08,West,271,0.0,0.0,98,0.08,,---,1.08,VWS V14.01,2013-04-28 23:10:00,
2013-04-28 19:15:00,50.5,50.0,30.08,West,271,0.0,0.0,98,0.09,,---,1.09,VWS V14.01,2013-04-28 23:15:00,
2013-04-28 19:20:00,50.6,50.1,30.07,West,271,0.0,0.0,98,0.08,,---,1.09,VWS V14.01,2013-04-28 23:20:00,
2013-04-28 19:25:00,50.6,50.1,30.07,West,271,0.0,0.0,98,0.08,,---,1.10,VWS V14.01,2013-04-28 23:25:00,
2013-04-28 19:30:00,50.6,50.1,30.06,West,271,0.0,0.0,98,0.07,,---,1.11,VWS V14.01,2013-04-28 23:30:00,
2013-04-28 19:35:00,50.6,50.1,30.06,West,271,0.0,1.0,98,0.07,,---,1.11,VWS V14.01,2013-04-28 23:35:00,
2013-04-28 19:40:00,50.6,50.1,30.05,West,271,0.0,0.0,98,0.06,,---,1.11,VWS V14.01,2013-04-28 23:40:00,
2013-04-28 19:45:00,50.6,50.1,30.05,West,273,0.0,0.0,98,0.07,,---,1.12,VWS V14.01,2013-04-28 23:45:00,
2013-04-28 19:50:00,50.6,50.1,30.04,West,273,0.0,0.0,98,0.06,,---,1.12,VWS V14.01,2013-04-28 23:50:00,
2013-04-28 19:55:00,50.6,50.1,30.04,West,273,0.0,0.0,98,0.05,,---,1.12,VWS V14.01,2013-04-28 23:55:00,
2013-04-28 20:00:00,50.6,50.1,30.04,West,273,0.0,0.0,98,0.05,,---,1.12,VWS V14.01,2013-04-29 00:00:00,
2013-04-28 20:05:00,50.6,50.1,30.04,West,273,0.0,0.0,98,0.05,,---,1.12,VWS V14.01,2013-04-29 00:05:00,
2013-04-28 20:10:00,50.6,50.1,30.04,West,273,0.0,0.0,98,0.04,,---,1.12,VWS V14.01,2013-04-29 00:10:00,
2013-04-28 20:15:00,50.6,50.1,30.03,West,273,0.0,0.0,98,0.03,,---,1.12,VWS V14.01,2013-04-29 00:15:00,
2013-04-28 20:20:00,50.6,50.1,30.03,West,273,0.0,1.0,98,0.03,,---,1.12,VWS V14.01,2013-04-29 00:20:00,
2013-04-28 20:25:00,50.6,50.1,30.03,West,271,0.0,0.0,98,0.02,,---,1.12,VWS V14.01,2013-04-29 00:25:00,
2013-04-28 20:30:00,50.6,50.1,30.03,NNW,339,1.0,1.0,98,0.01,,---,1.12,VWS V14.01,2013-04-29 00:30:00,
2013-04-28 20:35:00,50.6,50.1,30.03,NNW,339,0.0,1.0,98,0.01,,---,1.12,VWS V14.01,2013-04-29 00:35:00,
2013-04-28 20:40:00,50.6,50.1,30.03,NNE,15,1.0,1.0,98,0.02,,---,1.13,VWS V14.01,2013-04-29 00:40:00,
2013-04-28 20:45:00,50.5,50.0,30.03,NNE,15,0.0,0.0,98,0.02,,---,1.13,VWS V14.01,2013-04-29 00:45:00,
2013-04-28 20:50:00,50.5,50.0,30.02,NNE,15,0.0,1.0,98,0.01,,---,1.13,VWS V14.01,2013-04-29 00:50:00,
2013-04-28 20:55:00,50.5,50.0,30.02,NNE,15,0.0,0.0,98,0.01,,---,1.13,VWS V14.01,2013-04-29 00:55:00,
2013-04-28 21:00:00,50.5,50.0,30.02,NNE,18,1.0,2.0,98,0.01,,---,1.13,VWS V14.01,2013-04-29 01:00:00,
2013-04-28 21:05:00,50.4,49.9,30.01,NNE,23,1.0,1.0,98,0.02,,---,1.14,VWS V14.01,2013-04-29 01:05:00,
2013-04-28 21:10:00,50.4,49.9,29.99,ENE,77,0.0,0.0,98,0.02,,---,1.14,VWS V14.01,2013-04-29 01:10:00,
2013-04-28 21:15:00,50.4,49.9,29.98,ENE,77,0.0,2.0,98,0.02,,---,1.14,VWS V14.01,2013-04-29 01:15:00,
2013-04-28 21:20:00,50.3,49.8,29.98,NNE,30,1.0,2.0,98,0.02,,---,1.14,VWS V14.01,2013-04-29 01:20:00,
2013-04-28 21:25:00,50.3,49.8,29.99,NW,318,0.0,0.0,98,0.02,,---,1.14,VWS V14.01,2013-04-29 01:25:00,
2013-04-28 21:30:00,50.3,49.8,29.99,NNE,13,0.0,0.0,98,0.02,,---,1.14,VWS V14.01,2013-04-29 01:30:00,
2013-04-28 21:35:00,50.3,49.5,29.99,ENE,64,0.0,1.0,97,0.02,,---,1.14,VWS V14.01,2013-04-29 01:35:00,
2013-04-28 21:40:00,50.3,49.5,29.99,ENE,64,1.0,1.0,97,0.01,,---,1.14,VWS V14.01,2013-04-29 01:40:00,
2013-04-28 21:45:00,50.2,49.4,30.00,ENE,63,1.0,1.0,97,0.01,,---,1.14,VWS V14.01,2013-04-29 01:45:00,
2013-04-28 21:50:00,50.2,49.4,30.00,ENE,62,2.0,2.0,97,0.01,,---,1.14,VWS V14.01,2013-04-29 01:50:00,
2013-04-28 21:55:00,50.1,49.3,30.00,ENE,58,1.0,1.0,97,0.01,,---,1.14,VWS V14.01,2013-04-29 01:55:00,
2013-04-28 22:00:00,50.2,49.4,30.00,NE,54,0.0,0.0,97,0.01,,---,1.14,VWS V14.01,2013-04-29 02:00:00,
2013-04-28 22:05:00,50.1,49.3,30.00,NE,54,0.0,0.0,97,0.01,,---,1.14,VWS V14.01,2013-04-29 02:05:00,
2013-04-28 22:10:00,50.2,49.4,30.00,NE,53,0.0,0.0,97,0.00,,---,1.14,VWS V14.01,2013-04-29 02:10:00,
2013-04-28 22:15:00,50.2,49.4,30.00,NE,53,0.0,0.0,97,0.00,,---,1.14,VWS V14.01,2013-04-29 02:15:00,
2013-04-28 22:20:00,50.3,49.5,30.00,NE,53,1.0,1.0,97,0.00,,---,1.14,VWS V14.01,2013-04-29 02:20:00,
2013-04-28 22:25:00,50.3,49.5,30.01,NE,54,0.0,1.0,97,0.00,,---,1.14,VWS V14.01,2013-04-29 02:25:00,
2013-04-28 22:30:00,50.4,49.6,30.01,NE,54,0.0,1.0,97,0.00,,---,1.14,VWS V14.01,2013-04-29 02:30:00,
2013-04-28 22:35:00,50.4,49.6,30.01,NE,56,0.0,0.0,97,0.00,,---,1.14,VWS V14.01,2013-04-29 02:35:00,
2013-04-28 22:40:00,50.4,49.6,30.02,NE,55,0.0,1.0,97,0.00,,---,1.14,VWS V14.01,2013-04-29 02:40:00,
2013-04-28 22:45:00,50.3,49.5,30.02,NE,49,1.0,1.0,97,0.00,,---,1.14,VWS V14.01,2013-04-29 02:45:00,
2013-04-28 22:50:00,50.2,49.4,30.02,NNW,335,0.0,1.0,97,0.00,,---,1.14,VWS V14.01,2013-04-29 02:50:00,
2013-04-28 22:55:00,50.1,49.3,30.03,NNW,335,0.0,0.0,97,0.00,,---,1.14,VWS V14.01,2013-04-29 02:55:00,
2013-04-28 23:00:00,50.0,49.2,30.03,SSW,205,0.0,1.0,97,0.00,,---,1.14,VWS V14.01,2013-04-29 03:00:00,
2013-04-28 23:05:00,50.0,49.2,30.04,WSW,257,0.0,0.0,97,0.00,,---,1.14,VWS V14.01,2013-04-29 03:05:00,
2013-04-28 23:10:00,49.9,49.1,30.04,West,278,2.0,2.0,97,0.00,,---,1.14,VWS V14.01,2013-04-29 03:10:00,
2013-04-28 23:15:00,49.9,49.1,30.04,West,280,2.0,2.0,97,0.00,,---,1.14,VWS V14.01,2013-04-29 03:15:00,
2013-04-28 23:20:00,49.8,49.0,30.04,West,277,0.0,0.0,97,0.00,,---,1.14,VWS V14.01,2013-04-29 03:20:00,
2013-04-28 23:25:00,49.8,49.3,30.04,West,277,0.0,0.0,98,0.00,,---,1.14,VWS V14.01,2013-04-29 03:25:00,
2013-04-28 23:30:00,49.7,49.2,30.04,West,277,0.0,0.0,98,0.00,,---,1.14,VWS V14.01,2013-04-29 03:30:00,
2013-04-28 23:35:00,49.7,49.2,30.04,West,276,0.0,0.0,98,0.00,,---,1.14,VWS V14.01,2013-04-29 03:35:00,
2013-04-28 23:40:00,49.7,49.2,30.04,West,277,0.0,0.0,98,0.00,,---,1.14,VWS V14.01,2013-04-29 03:40:00,
2013-04-28 23:45:00,49.7,49.2,30.04,West,277,0.0,0.0,98,0.00,,---,1.14,VWS V14.01,2013-04-29 03:45:00,
2013-04-28 23:50:00,49.7,49.2,30.03,West,277,0.0,0.0,98,0.00,,---,1.14,VWS V14.01,2013-04-29 03:50:00,
2013-04-28 23:55:00,49.6,49.1,30.03,WNW,302,1.0,2.0,98,0.00,,---,1.14,VWS V14.01,2013-04-29 03:55:00,